User: anonymous   Login
Location: Unspecified
(0.0000°N, 0.0000°E)
Time: 01:34:07
(UTC+00:00)
Language:

Cosmos 1447 - Orbit

View from above orbital plane
View from above orbital plane
View from above satellite
View from above satellite

Ground track
Ground track

The orbit data is extracted from the following two-line orbital elements,

1 13916U 83021A   18174.59466420 +.00000039 +00000-0 +24421-4 0  9990
2 13916 082.9447 359.0289 0038815 048.8910 342.4762 13.75068236768355
Epoch (UTC): 23 June 2018 14:16:18
Eccentricity: 0.0038815
inclination: 82.9447°
perigee height: 953 km
apogee height: 1010 km
right ascension of ascending node: 359.0289°
argument of perigee: 48.8910°
revolutions per day: 13.75068236
mean anomaly at epoch: 342.4762°
orbit number at epoch: 76835

The dashed part of the orbit path shows where the satellite is in the earth's shadow,  

DLR